Regional Weather Roundup
Issued by NWS

Home | Current Version | Previous Version | Text Only | Print | Product List | Glossary Off
Versions: 1 2 3 4 5 6 7 8 9 10 11 12 13 14 15 16 17 18 19 20 21 22 23 24 25 26 27 28 29 30 31 32 33 34 35 36 37 38 39 40 41 42 43 44 45 46 47 48 49 50

000
ASUS43 KMKX 282321
RWRWI

WISCONSIN REGIONAL WEATHER ROUNDUP
NATIONAL WEATHER SERVICE MILWAUKEE/SULLIVAN WI
500 PM CST SAT FEB 28 2015

NOTE: "FAIR" INDICATES FEW OR NO CLOUDS BELOW 12,000 FEET WITH NO
SIGNIFICANT WEATHER AND/OR OBSTRUCTIONS TO VISIBILITY.

WIZ001-002-006>008-014>016-023>028-010000-
NORTHWEST WISCONSIN

CITY           SKY/WX    TMP DP  RH WIND       PRES   REMARKS
SUPERIOR ARPT  PTCLDY    22   3  43 SW16      30.31F WCI   8
ASHLAND        CLEAR     21  -3  35 SW14      30.33F WCI   8
HAYWARD        CLEAR     16  -1  47 S15       30.33F WCI   1
SIREN          MOCLDY    18   4  53 S12G18    30.35S WCI   5
CUMBERLAND     CLOUDY    16   1  53 S12       30.35F WCI   3
RICE LAKE      MOCLDY    17   0  47 S13       30.38F WCI   3
CHETEK         MOCLDY    16   0  50 SE10      30.39S WCI   3
LADYSMITH      CLEAR     16  -2  44 S12       30.39S WCI   3
EAU CLAIRE     PTCLDY    17  -1  45 S9        30.41F WCI   6
MENOMONIE      CLEAR     16  -1  47 S9        30.41F WCI   5
NEW RICHMOND   PTCLDY    16   1  53 S12       30.37F WCI   3
OSCEOLA        CLOUDY    18   4  53 S15       30.39F WCI   4
$$

WIZ003>005-009-010-017-018-010000-
NORTH CENTRAL WISCONSIN

CITY           SKY/WX    TMP DP  RH WIND       PRES   REMARKS
MANITOWISH WTR CLEAR     19  -2  39 SW9       30.31F WCI   7
ARBOR VITAE    FAIR      18  -5  36 S16       30.32F WCI   3
WOODRUFF       FAIR      18  -5  36 S16       30.32F WCI   3
RHINELANDER    CLEAR     15  -4  42 S14G20    30.36F WCI   0
EAGLE RIVER    CLEAR     19  -8  31 S9G16     30.32F WCI   7
LAND O LAKES   CLEAR     20  -6  31 S8        30.31F WCI  11
PHILLIPS       CLEAR     16  -1  46 S10       30.33F WCI   4
TOMAHAWK       FAIR      16  -2  45 CALM      30.37F
MEDFORD        CLEAR     16  -4  41 S7        30.37F WCI   6
MERRILL        CLEAR     18  -4  38 SW8       30.39F WCI   7
$$

WIZ029-030-035-036-043>047-010000-
CENTRAL WISCONSIN

CITY           SKY/WX    TMP DP  RH WIND       PRES   REMARKS
WAUSAU         FAIR      17  -4  39 S12       30.40F WCI   4
MOSINEE        CLEAR     16  -2  45 S9        30.41F WCI   4
MARSHFIELD     CLEAR     17  -3  41 SW9       30.40F WCI   6
STEVENS POINT  CLEAR     17  -5  37 S12       30.43F WCI   4
WAUPACA        CLEAR     21  -2  37 S7        30.47F WCI  12
WAUTOMA        CLEAR     19  -2  39 S9        30.48F WCI   8
WISC RAPIDS    CLEAR     17  -5  37 SW9       30.45F WCI   6
CAMP DOUGLAS   CLEAR     19  -2  39 S8        30.45F WCI   8
$$

WIZ011>013-019>022-031-037>040-048>050-010000-
NORTHEAST WISCONSIN

CITY           SKY/WX    TMP DP  RH WIND       PRES   REMARKS
ANTIGO         CLEAR     14  -1  51 S10       30.38F WCI   1
SHAWANO        CLEAR     21   0  39 S3        30.47F
OCONTO         CLEAR     18   1  46 S7        30.49F WCI   9
STURGEON BAY   CLEAR     19   1  45 SW7       30.51S WCI  10
GREEN BAY      CLEAR     18   1  47 S12       30.50F WCI   5
MANITOWOC      CLEAR     19   9  65 S16G22    30.52F WCI   4
APPLETON       PTCLDY    18   0  45 S10       30.49F WCI   6
CLINTONVILLE   CLEAR     19   1  45 S10       30.47S WCI   8
OSHKOSH        CLEAR     17   0  47 S10       30.50F WCI   5
$$

WIZ032>034-041-042-053>061-010000-
SOUTHWEST WISCONSIN

CITY           SKY/WX    TMP DP  RH WIND       PRES   REMARKS
LA CROSSE      PTCLDY    18  -2  41 S12       30.47F WCI   5
SPARTA         CLEAR     19  -3  39 S7        30.47S WCI   9
VIROQUA        CLEAR     15  -2  46 S8        30.42F WCI   4
BOSCOBEL       MOCLDY    17   0  47 S6        30.50F WCI   9
PRAIRIE DU CHI CLOUDY    17  -3  41 E7        30.49F WCI   8
PLATTEVILLE    MOCLDY    14   5  67 E8        30.47F WCI   3
$$

WIZ056-057-062-063-064-067-068-010000-
SOUTH CENTRAL WISCONSIN

CITY           SKY/WX    TMP DP  RH WIND       PRES   REMARKS
REEDSBURG      CLEAR     16  -1  46 S8        30.47F WCI   5
BARABOO/DELLS  CLEAR     15   0  49 S9        30.47F WCI   4
LONE ROCK      PTCLDY    15   0  51 S7        30.50F WCI   5
MINERAL POINT  MOCLDY    16   3  57 SE7       30.45F WCI   6
MADISON        MOCLDY    16   0  49 S12       30.50F WCI   3
MIDDLETON      CLEAR     16  -2  45 S7        30.50F WCI   7
WATERTOWN      CLEAR     15   1  53 S7        30.52F WCI   6
MONROE         CLEAR     14   5  67 SE6       30.47F WCI   5
JANESVILLE     CLEAR     19   0  42 SW6       30.52F WCI  11
$$

WIZ051-052-058>065-066-070>072-010000-
SOUTHEAST WISCONSIN

CITY           SKY/WX    TMP DP  RH WIND       PRES   REMARKS
MILWAUKEE      PTCLDY    18  -1  43 S7        30.54F WCI   9
WAUKESHA       PTCLDY    16  -2  45 SW8       30.53F WCI   5
MILWAUKEE/TIMM CLEAR     19  -2  38 S8        30.54F WCI   9
RACINE         CLEAR     18   5  57 S7        30.55F WCI   9
BURLINGTON     CLEAR     15   1  53 SW6       30.53F WCI   6
KENOSHA        CLEAR     18   6  59 SE9       30.54F WCI   7
FOND DU LAC    CLEAR     18  -1  43 S10       30.50F WCI   6
SHEBOYGAN      CLEAR     18   4  54 SE10      30.51F WCI   6
WEST BEND      CLEAR     19  -2  38 S7        30.51F WCI  10
JUNEAU         CLEAR     16   1  52 S7        30.52S WCI   6
$$

LSZ147-162-010000-
LAKE SUPERIOR

STATION/POSITION TIME  TEMP    WIND        PRES    WAVE
                       AIR SEA DIR/SP/G            HT/PER
                 (UTC) (F)     (DEG/KT/KT) (MB)    (FT/S)
DEVILS ISLAND    2300   22     200/  8/ 11 1027.8F
PORT WING        2200   23     200/  9/ 16 1027.4F
SAXON HARBOR     2200   24     220/ 11/ 17 1027.8F
$$

LMZ867-665-643>646-010000-
LAKE MICHIGAN

STATION/POSITION TIME  TEMP    WIND        PRES    WAVE
                       AIR SEA DIR/SP/G            HT/PER
                 (UTC) (F)     (DEG/KT/KT) (MB)    (FT/S)
NORTHPORT PIER   2300   20     200/  5/ 13 1032.2F
SISTER BAY       2213   27     280/ 10/ 10   N/A
KEWAUNEE LAKESHO 2212          180/ 15/ 18   N/A
SHEBOYGAN LAKESH 2300   19     180/ 14/ 16 1035.4F
PORT WASHINGTON  2240   21     170/ 10/ 16 1034.5F
MILWAUKEE LAKESH 2300   19     200/  7/  9   N/A
KENOSHA   LAKESH 2300   19     160/ 12/ 14 1034.2F
$$

TC  - TEMPERATURE IN CELSIUS
VSB - VISIBILITY IN STATUTE MILES
WCI - WIND CHILL INDEX
HX  - HEAT INDEX




USA.gov is the U.S. government's official web portal to all federal, state and local government web resources and services.